ZHANGHENG 1-01 (CSES-1)

Last updated on Fri Sep 11 2026 00:03:32 GMT+0000 (Coordinated Universal Time)

1 43194U 18015C 26253.54048793 .00005256 00000+0 24274-3 0 9993 2 43194 97.6948 60.9399 0013926 345.4756 14.6076 15.20574392477614
UTC large
Height (km)
Speed (km/s)
/
Latitude / Longitude
Inclination (degrees)
Orbital Period (minutes)
Azimuth
Elevation
Range (km)
Doppler Factor

Next 0 passes for location: London (51.5072 / 0.1276)

No passes found over London.
ZHANGHENG 1-01 (CSES-1)